Погода в Хуэйсае

Лаос     20°30′00″N   103°45′00″E
темп.,
°C
ветер,
м/с
пор.,
м/с
влажн.,
%
обл.,
%
осадки,
мм/ч
давл.,
гПа
погр.,
м
10 августа, ср
ср1001:00+18ю119815 0.1 100612
04:00+17ююз119813 0.1 100513
07:00+19юз01935 0.1 100658
10:00+28ссз11514 0.1 10051175
13:00+31с2239100 0.1 10022365
16:00+25сз0168100 0.3 1002299
19:00+21юв1184100 0.4 100315
22:00+19в1199100 2.1 100632
11 августа, чт
чт1101:00+19з11100100 5.1 100540
04:00+19зюз11100100 1.4 100459
07:00+19зюз12100100 4.5 1005121
10:00+20юз13100100 2.4 1005159
13:00+20юз13100100 8.8 1003202
16:00+20юз13100100 5.6 1002190
19:00+19юз12100100 12.1 1003118
22:00+19ю12100100 8.2 1005104
12 августа, пт
пт1201:00+19ю11100100 10.6 100483
04:00+19вюв01100100 1.3 100449
07:00+19вюв01100100 1.7 100646
10:00+21ююз1198100 1.4 1007275
13:00+20ю1199100 2.8 100593
16:00+20ююз1299100 1.2 1005106
19:00+19юз1199100 1.8 100729
22:00+19юз119989 0.1 100932
13 августа, сб
сб1301:00+18ююз1199100 0.1 100826
04:00+18юз1199100 0.0 100735
07:00+19юз129989 0.0 100975
10:00+20з129745 0.6 1009201
13:00+26юз237762 2.1 10051144
16:00+25з1385100 1.9 1004657
19:00+20юз119899 4.3 100623
22:00+19юз1199100 0.3 100939
14 августа, вс
вс1401:00+19юз129998 0.3 100858
04:00+18юз1299100 0.0 100848
07:00+19зюз129899 0.0 1008107
10:00+24з246997 0.0 1008966
13:00+25з1386100 0.8 1005465
16:00+23зюз1298100 2.3 1005120
19:00+20юз1199100 3.1 100722
22:00+19юз1199100 3.1 100826